Location: LDNL
(36.4545°S, 141.6685°E)
Time: 12:16:15
(UTC+10:00)

Vanguard 1 - Pass Details

Date: 19 August 2022
Orbit: 649 x 3832 km, 34.2° (Epoch: 30 September)

Event Time Altitude Azimuth Distance (km) Brightness Sun altitude
Rises 20:24:08 0° 265° (W) 3,514 14.2 -29.0°
Reaches altitude 10° 20:27:34 10° 282° (WNW) 2,287 12.8 -29.6°
Maximum altitude 20:31:05 19° 328° (NNW) 1,569 11.3 -30.4°
Enters shadow 20:31:14 19° 331° (NNW) 1,566 11.3 -30.4°
